When you browse on this site, cookies collect data to enhance your experience and personalize the content and advertising you see.
Visit our Privacy Policy to learn more. By continuing to use the site, you agree to this use of cookies and data.
  • en France
  • Liste des pays
  • À 7 jours
  • Température de l'eau
  • Carte météo
  • Widgets météo
  • user-avatar
    Se connecter

    Météo par heure à Brogowa

    Ce jour, 24 Février, Lundi

    Heure Température Précipitation Vent Pression Humidité
    00:00 +3°C° 0.4 mm 7 m/s 733 mmHg 93%
    01:00 +1°C° 0 mm 10 m/s 735 mmHg 89%
    02:00 +1°C° 0.6 mm 11 m/s 736 mmHg 88%
    03:00 -1°C° 0.6 mm 11 m/s 737 mmHg 86%
    04:00 -1°C° 0.6 mm 11 m/s 738 mmHg 85%
    05:00 -1°C° 0.1 mm 11 m/s 740 mmHg 83%
    06:00 0°C° 0.1 mm 10 m/s 741 mmHg 81%
    07:00 0°C° 0.1 mm 9 m/s 742 mmHg 79%
    08:00 0°C° 0 mm 9 m/s 743 mmHg 76%
    09:00 +1°C° 0 mm 9 m/s 744 mmHg 74%
    10:00 +2°C° 0 mm 9 m/s 745 mmHg 71%
    11:00 +1°C° 0.1 mm 8 m/s 745 mmHg 74%
    12:00 +1°C° 0.1 mm 8 m/s 745 mmHg 78%
    13:00 +2°C° 0.1 mm 7 m/s 745 mmHg 81%
    14:00 +3°C° 0.1 mm 6 m/s 745 mmHg 78%
    15:00 +3°C° 0.1 mm 6 m/s 745 mmHg 75%
    16:00 +3°C° 0.1 mm 5 m/s 745 mmHg 72%
    17:00 +3°C° 0 mm 5 m/s 745 mmHg 74%
    18:00 +3°C° 0 mm 4 m/s 745 mmHg 76%
    19:00 +3°C° 0 mm 4 m/s 744 mmHg 77%
    20:00 +3°C° 0 mm 4 m/s 744 mmHg 77%
    21:00 +1°C° 0 mm 4 m/s 743 mmHg 78%
    22:00 +2°C° 0 mm 3 m/s 743 mmHg 78%
    23:00 +1°C° 0.3 mm 4 m/s 741 mmHg 84%

    Demain, 25 Février, Mardi

    Heure Température Précipitation Vent Pression Humidité
    00:00 +1°C° 0.3 mm 5 m/s 740 mmHg 89%
    01:00 -1°C° 0.3 mm 6 m/s 739 mmHg 94%
    02:00 +1°C° 1.4 mm 6 m/s 738 mmHg 92%
    03:00 +2°C° 1.4 mm 7 m/s 736 mmHg 89%
    04:00 +2°C° 1.4 mm 7 m/s 735 mmHg 86%
    05:00 +3°C° 0.7 mm 7 m/s 735 mmHg 87%
    06:00 +4°C° 0.7 mm 8 m/s 734 mmHg 88%
    07:00 +5°C° 0.7 mm 8 m/s 734 mmHg 89%
    08:00 +6°C° 0.3 mm 8 m/s 734 mmHg 88%
    09:00 +6°C° 0.3 mm 7 m/s 734 mmHg 86%
    10:00 +6°C° 0.3 mm 7 m/s 734 mmHg 84%
    11:00 +8°C° 0.1 mm 7 m/s 733 mmHg 82%
    12:00 +8°C° 0.1 mm 7 m/s 733 mmHg 79%
    13:00 +9°C° 0.1 mm 6 m/s 733 mmHg 76%
    14:00 +9°C° 0.1 mm 6 m/s 733 mmHg 77%
    15:00 +9°C° 0.1 mm 6 m/s 732 mmHg 77%
    16:00 +9°C° 0.1 mm 6 m/s 732 mmHg 77%
    17:00 +8°C° 0.1 mm 6 m/s 731 mmHg 78%
    18:00 +8°C° 0.1 mm 6 m/s 731 mmHg 80%
    19:00 +8°C° 0.1 mm 7 m/s 731 mmHg 81%
    20:00 +7°C° 0.8 mm 6 m/s 731 mmHg 82%
    21:00 +5°C° 0.8 mm 6 m/s 731 mmHg 82%
    22:00 +5°C° 0.8 mm 5 m/s 731 mmHg 82%
    23:00 +4°C° 0 mm 4 m/s 731 mmHg 82%

    Après-demain, 26 Février, Mercredi

    Heure Température Précipitation Vent Pression Humidité
    00:00 +4°C° 0 mm 3 m/s 731 mmHg 81%
    01:00 +3°C° 0 mm 3 m/s 731 mmHg 80%
    02:00 +4°C° 0 mm 2 m/s 731 mmHg 81%
    03:00 +4°C° 0 mm 2 m/s 730 mmHg 82%
    04:00 +3°C° 0 mm 2 m/s 730 mmHg 83%
    05:00 +3°C° 0 mm 2 m/s 730 mmHg 84%
    06:00 +3°C° 0 mm 2 m/s 730 mmHg 85%
    07:00 +3°C° 0 mm 2 m/s 729 mmHg 87%
    08:00 +4°C° 0 mm 2 m/s 729 mmHg 79%
    09:00 +5°C° 0 mm 2 m/s 729 mmHg 71%
    10:00 +6°C° 0 mm 2 m/s 729 mmHg 64%
    11:00 +5°C° 0 mm 3 m/s 729 mmHg 62%
    12:00 +7°C° 0 mm 3 m/s 729 mmHg 60%
    13:00 +7°C° 0 mm 3 m/s 729 mmHg 59%
    14:00 +7°C° 0 mm 3 m/s 729 mmHg 61%
    15:00 +7°C° 0 mm 3 m/s 729 mmHg 62%
    16:00 +7°C° 0 mm 3 m/s 729 mmHg 64%
    17:00 +5°C° 0.1 mm 4 m/s 729 mmHg 70%
    18:00 +4°C° 0.1 mm 4 m/s 729 mmHg 75%
    19:00 +2°C° 0.1 mm 5 m/s 730 mmHg 80%
    20:00 +1°C° 0 mm 5 m/s 730 mmHg 81%
    21:00 +1°C° 0 mm 5 m/s 730 mmHg 82%
    22:00 0°C° 0 mm 5 m/s 731 mmHg 83%
    23:00 0°C° 0.3 mm 5 m/s 731 mmHg 86%

    27 Février, Jeudi

    Heure Température Précipitation Vent Pression Humidité
    00:00 -1°C° 0.3 mm 6 m/s 732 mmHg 89%
    01:00 -2°C° 0.3 mm 6 m/s 732 mmHg 93%
    02:00 -2°C° 0 mm 6 m/s 732 mmHg 89%
    03:00 -2°C° 0 mm 6 m/s 732 mmHg 86%
    04:00 -1°C° 0 mm 6 m/s 733 mmHg 83%
    05:00 -2°C° 0.1 mm 6 m/s 733 mmHg 84%
    06:00 -2°C° 0.1 mm 6 m/s 734 mmHg 86%
    07:00 -3°C° 0.1 mm 6 m/s 735 mmHg 88%
    08:00 -1°C° 0.1 mm 5 m/s 735 mmHg 84%
    09:00 -1°C° 0.1 mm 5 m/s 736 mmHg 80%
    10:00 0°C° 0.1 mm 4 m/s 736 mmHg 75%
    11:00 0°C° 0.1 mm 5 m/s 737 mmHg 72%
    12:00 +1°C° 0.1 mm 5 m/s 737 mmHg 69%
    13:00 +1°C° 0.1 mm 5 m/s 737 mmHg 66%
    14:00 +1°C° 0.2 mm 5 m/s 737 mmHg 67%
    15:00 +1°C° 0.2 mm 4 m/s 737 mmHg 67%
    16:00 +1°C° 0.2 mm 4 m/s 737 mmHg 68%
    17:00 0°C° 0.1 mm 4 m/s 737 mmHg 73%
    18:00 0°C° 0.1 mm 3 m/s 738 mmHg 77%
    19:00 0°C° 0.1 mm 3 m/s 738 mmHg 82%
    20:00 -1°C° 0 mm 2 m/s 738 mmHg 84%
    21:00 -1°C° 0 mm 2 m/s 738 mmHg 85%
    22:00 +1°C° 0 mm 1 m/s 738 mmHg 87%
    23:00 +1°C° 0 mm 1 m/s 738 mmHg 87%

    28 Février, Vendredi

    Heure Température Précipitation Vent Pression Humidité
    00:00 0°C° 0 mm 1 m/s 737 mmHg 88%
    01:00 0°C° 0 mm 1 m/s 737 mmHg 88%
    02:00 0°C° 0 mm 1 m/s 737 mmHg 87%
    03:00 0°C° 0 mm 1 m/s 736 mmHg 87%
    04:00 0°C° 0 mm 1 m/s 736 mmHg 86%
    05:00 0°C° 0 mm 1 m/s 736 mmHg 85%
    06:00 -1°C° 0 mm 2 m/s 736 mmHg 85%
    07:00 -1°C° 0 mm 3 m/s 736 mmHg 84%
    08:00 -1°C° 0 mm 3 m/s 736 mmHg 79%
    09:00 -1°C° 0 mm 4 m/s 736 mmHg 74%
    10:00 -1°C° 0 mm 5 m/s 736 mmHg 69%
    11:00 -1°C° 0 mm 5 m/s 736 mmHg 64%
    12:00 0°C° 0 mm 5 m/s 737 mmHg 59%
    13:00 0°C° 0 mm 5 m/s 737 mmHg 53%
    14:00 0°C° 0 mm 5 m/s 738 mmHg 53%
    15:00 0°C° 0 mm 4 m/s 740 mmHg 53%
    16:00 -1°C° 0 mm 4 m/s 741 mmHg 53%
    17:00 -2°C° 0 mm 4 m/s 741 mmHg 56%
    18:00 -2°C° 0 mm 3 m/s 742 mmHg 59%
    19:00 -3°C° 0 mm 2 m/s 743 mmHg 62%
    20:00 -3°C° 0 mm 2 m/s 743 mmHg 60%
    21:00 -1°C° 0 mm 1 m/s 744 mmHg 59%
    22:00 -1°C° 0 mm 1 m/s 744 mmHg 57%
    23:00 -1°C° 0 mm 1 m/s 744 mmHg 56%

    29 Février, Samedi

    Heure Température Précipitation Vent Pression Humidité
    00:00 -1°C° 0 mm 1 m/s 744 mmHg 54%
    01:00 -1°C° 0 mm 1 m/s 745 mmHg 53%
    02:00 -2°C° 0 mm 1 m/s 744 mmHg 52%
    03:00 -2°C° 0 mm 1 m/s 744 mmHg 51%
    04:00 -2°C° 0 mm 1 m/s 744 mmHg 50%
    05:00 -2°C° 0 mm 1 m/s 744 mmHg 50%
    06:00 -4°C° 0 mm 2 m/s 744 mmHg 50%
    07:00 -4°C° 0 mm 2 m/s 744 mmHg 50%
    08:00 -4°C° 0 mm 3 m/s 744 mmHg 44%
    09:00 -2°C° 0 mm 3 m/s 744 mmHg 39%
    10:00 -2°C° 0 mm 4 m/s 744 mmHg 33%
    11:00 -1°C° 0 mm 4 m/s 743 mmHg 32%
    12:00 0°C° 0 mm 4 m/s 743 mmHg 31%
    13:00 0°C° 0 mm 5 m/s 742 mmHg 29%
    14:00 0°C° 0 mm 5 m/s 742 mmHg 33%
    15:00 0°C° 0 mm 5 m/s 741 mmHg 36%
    16:00 0°C° 0 mm 5 m/s 740 mmHg 39%
    17:00 -2°C° 0 mm 6 m/s 740 mmHg 46%
    18:00 -2°C° 0 mm 6 m/s 739 mmHg 52%
    19:00 -3°C° 0 mm 7 m/s 738 mmHg 59%
    20:00 -3°C° 0 mm 7 m/s 738 mmHg 65%
    21:00 -4°C° 0 mm 8 m/s 737 mmHg 71%
    22:00 -4°C° 0 mm 8 m/s 736 mmHg 77%
    23:00 -2°C° 0.2 mm 8 m/s 735 mmHg 77%
    Voir plus